Weather History for Gaylord, MI

Change the Weather History Date:

Wednesday, April 2, 2014

  Actual Average Record
Temperature  
Mean Temperature 28 °F -  
Max Temperature 36 °F 45 °F 77 °F (1963)
Min Temperature 21 °F 25 °F 12 °F (2013)
Degree Days  
Heating Degree Days 36    
Moisture  
Dew Point 16 °F    
Average Humidity 62    
Maximum Humidity 78    
Minimum Humidity 43    
Precipitation  
Precipitation 0.00 in - - ()
Sea Level Pressure  
Sea Level Pressure 30.15 in    
Wind  
Wind Speed 10 mph (WNW)    
Max Wind Speed 16 mph    
Max Gust Speed 28 mph    
Visibility 10 miles    
Events      
Averages and records for this station are not official NWS values.
T = Trace of Precipitation, MM = Missing Value Source: NWS Daily Summary

Daily Weather History Graph

Daily Weather History Graph

Search for Another Location

Airport:

Trip Planner

Search our weather history database for the weather conditions in past years. The results will help you decide how hot, cold, wet, or windy it might be!

Date:

Astronomy

Apr. 02, 2014 Rise Set
Actual Time 7:17 AM EDT 8:07 PM EDT
Civil Twilight 6:47 AM EDT 8:37 PM EDT
Nautical Twilight 6:12 AM EDT 9:13 PM EDT
Astronomical Twilight 5:35 AM EDT 9:50 PM EDT
Moon 8:54 AM EDT (4/2) 11:38 PM EDT (4/2)
Length of Visible Light 13h 49m
Length of Day
12h 50m
Waxing Crescent, 10% of the Moon is Illuminated
Apr 2
Waxing Crescent
Apr 7
First Quarter
Apr 15
Full
Apr 22
Last Quarter
Apr 29
New

Hourly Weather History & Observations

Time (EDT) Temp. Windchill Dew Point Humidity Pressure Visibility Wind Dir Wind Speed Gust Speed Precip Events Conditions
12:53 AM 25.0 °F 12.2 °F 16.0 °F 69% 29.97 in 10.0 mi West 16.1 mph 27.6 mph N/A   Overcast
1:53 AM 23.0 °F 12.4 °F 14.0 °F 68% 30.00 in 10.0 mi West 10.4 mph 23.0 mph N/A   Overcast
2:53 AM 21.9 °F 10.4 °F 12.9 °F 68% 30.02 in 10.0 mi WNW 11.5 mph 21.9 mph N/A   Overcast
3:53 AM 21.9 °F 10.4 °F 15.1 °F 75% 30.04 in 10.0 mi WNW 11.5 mph 23.0 mph N/A   Overcast
4:53 AM 23.0 °F 12.4 °F 16.0 °F 74% 30.06 in 10.0 mi West 10.4 mph 17.3 mph N/A   Overcast
5:53 AM 23.0 °F 13.1 °F 16.0 °F 74% 30.07 in 10.0 mi WNW 9.2 mph 16.1 mph N/A   Overcast
6:53 AM 23.0 °F 14.7 °F 17.1 °F 78% 30.09 in 10.0 mi WNW 6.9 mph - N/A   Overcast
8:53 AM 24.1 °F 15.2 °F 17.1 °F 75% 30.12 in 10.0 mi WNW 8.1 mph - N/A   Overcast
9:53 AM 25.0 °F 14.2 °F 17.1 °F 72% 30.14 in 10.0 mi West 11.5 mph - N/A   Mostly Cloudy
10:11 AM 26.1 °F 15.0 °F 17.1 °F 69% 30.09 in 10.0 mi West 12.7 mph 18.4 mph N/A   Scattered Clouds
10:53 AM 27.0 °F 16.7 °F 17.1 °F 66% 30.16 in 10.0 mi West 11.5 mph - N/A   Clear
11:53 AM 28.9 °F 19.2 °F 16.0 °F 58% 30.17 in 10.0 mi West 11.5 mph 17.3 mph N/A   Clear
12:53 PM 30.9 °F 21.2 °F 17.1 °F 57% 30.19 in 10.0 mi West 12.7 mph - N/A   Clear
1:53 PM 32.0 °F 25.6 °F 17.1 °F 54% 30.20 in 10.0 mi West 6.9 mph - N/A   Clear
2:53 PM 34.0 °F 26.6 °F 17.1 °F 50% 30.22 in 10.0 mi West 9.2 mph - N/A   Clear
3:53 PM 35.1 °F 28.6 °F 17.1 °F 48% 30.21 in 10.0 mi West 8.1 mph - N/A   Clear
4:53 PM 36.0 °F 30.3 °F 16.0 °F 44% 30.22 in 10.0 mi Variable 6.9 mph - N/A   Clear
6:53 PM 35.1 °F 28.6 °F 16.0 °F 46% 30.21 in 10.0 mi NNW 8.1 mph - N/A   Clear
7:53 PM 33.1 °F 30.0 °F 12.9 °F 43% 30.22 in 10.0 mi NNW 3.5 mph - N/A   Clear
8:53 PM 30.0 °F - 14.0 °F 51% 30.25 in 10.0 mi Calm Calm - N/A   Clear
9:53 PM 28.0 °F - 14.0 °F 56% 30.26 in 10.0 mi Calm Calm - N/A   Clear
10:53 PM 26.1 °F - 15.1 °F 63% 30.27 in 10.0 mi Calm Calm - N/A   Clear
11:53 PM 23.0 °F - 16.0 °F 74% 30.27 in 10.0 mi Calm Calm - N/A   Clear